Vorticity
nan nan nan nan nan nan nan nan nan nan nan nan nan nan nan nan nan nan nan nan nan nan nan nan nan nan nan nan nan nan nan nan nan nan nan nan nan nan nan nan nan nan nan
nan 6 7 7 7 10 10 8 8 10 10 9 8 7 6 7 7 4 10 9 8 8 9 8 7 6 6 5 6 5 5 5 6 5 5 5 5 5 5 5 5 5 nan
nan 5 7 8 8 10 9 9 8 7 10 12 8 6 7 7 8 7 6 8 7 6 9 9 9 7 6 6 5 5 5 6 6 6 5 5 5 5 5 5 5 5 nan
nan 4 7 9 10 12 6 9 8 8 10 10 8 7 7 8 9 8 5 8 7 6 8 10 9 8 8 7 5 5 6 6 6 6 6 6 5 5 5 5 5 5 nan
nan 6 8 13 13 11 10 8 8 7 9 11 9 7 7 9 8 8 9 5 8 7 8 9 7 8 8 8 7 5 6 5 5 5 6 5 5 5 5 5 5 5 nan
nan 9 8 9 12 10 12 13 9 7 10 10 9 9 8 8 8 8 8 7 7 7 8 7 5 7 10 9 7 6 6 5 6 6 5 6 6 6 5 5 5 5 nan
nan 8 8 7 8 9 8 9 10 8 5 8 8 7 10 11 7 6 9 10 8 7 7 5 5 7 9 9 8 8 6 6 6 6 6 6 6 6 6 6 5 5 nan
nan 8 7 6 6 9 9 5 4 3 9 10 7 5 5 8 12 9 7 10 9 6 9 8 6 6 6 9 12 11 9 9 7 6 6 6 7 7 7 6 6 6 nan
nan 8 7 5 7 8 8 8 8 3 5 10 5 0 6 11 10 11 8 9 8 7 8 9 8 7 5 8 12 10 8 10 13 10 7 7 7 6 6 6 6 7 nan
nan 8 8 9 6 6 10 9 6 5 8 9 5 7 5 8 4 9 12 9 8 10 8 8 9 8 7 7 6 11 12 5 6 10 12 9 7 6 6 7 6 6 nan
nan 5 9 10 5 7 10 9 9 6 6 8 8 8 6 8 9 7 8 10 8 10 9 7 7 11 10 7 8 10 11 10 7 6 7 8 10 10 8 7 6 6 nan
nan 11 6 7 10 9 9 9 10 8 6 8 8 8 7 6 11 9 13 13 8 9 9 9 9 8 10 10 8 11 11 8 8 8 6 6 7 8 9 9 8 7 nan
nan 12 9 7 8 10 9 9 10 9 8 9 8 8 8 6 8 11 13 12 10 9 10 10 10 9 8 9 13 13 7 10 9 9 8 7 7 8 8 8 9 9 nan
nan 12 13 13 11 7 7 8 8 10 8 9 10 6 7 9 7 6 6 10 11 8 6 8 11 9 8 9 12 10 8 12 10 9 8 8 9 9 9 9 9 8 nan
nan 12 14 12 12 11 8 6 9 10 9 9 9 7 5 7 8 10 11 6 9 9 8 8 8 10 9 11 11 9 10 13 14 10 9 8 9 9 9 9 9 9 nan
nan 10 9 11 10 9 10 11 10 12 9 9 13 13 8 6 5 5 7 8 11 13 12 9 9 10 9 9 12 8 9 9 12 11 11 11 10 9 8 9 9 9 nan
nan 8 9 10 8 9 9 9 10 10 9 8 9 10 7 4 5 6 7 7 6 7 9 8 7 9 9 8 7 7 8 10 14 14 9 9 9 9 9 9 10 9 nan
nan 7 8 8 9 9 9 8 7 7 8 7 7 7 5 7 9 6 7 7 7 8 9 9 7 9 11 9 8 8 7 6 10 13 12 7 9 9 9 9 9 10 nan
nan 7 8 8 8 9 8 8 9 9 8 8 7 6 7 9 9 8 8 7 7 9 10 11 10 8 11 10 11 9 9 9 10 11 11 10 11 11 9 8 9 9 nan
nan 8 8 8 9 8 8 8 9 8 8 10 10 9 8 6 5 4 8 6 6 9 9 8 10 9 9 11 10 11 12 11 7 12 12 10 12 17 15 12 10 13 nan
nan 9 9 9 9 8 11 11 7 7 8 8 8 10 10 10 7 5 5 7 6 7 7 8 7 8 7 9 8 8 8 9 9 10 10 12 13 13 22 22 19 20 nan
nan 10 9 9 8 14 17 10 8 9 10 8 7 8 9 12 13 12 8 5 7 6 5 4 7 8 6 7 10 8 7 8 11 14 13 10 17 11 10 14 23 27 nan
nan 14 14 12 13 2 11 27 19 11 12 11 11 14 13 13 17 16 14 10 9 7 9 10 9 9 13 10 15 18 16 13 12 12 19 17 14 18 9 6 14 19 nan
nan 16 16 21 15 5 7 17 21 17 6 10 17 17 17 14 13 20 20 18 17 17 19 26 23 21 24 24 19 16 14 14 13 12 13 16 8 7 8 4 2 11 nan
nan 12 13 15 9 4 9 17 22 20 13 12 11 12 18 12 10 19 21 16 11 13 16 20 19 17 9 13 26 23 12 12 12 6 10 13 10 7 7 7 0 -0 nan
nan nan nan nan nan nan nan nan nan nan nan nan nan nan nan nan nan nan nan nan nan nan nan nan nan nan nan nan nan nan nan nan nan nan nan nan nan nan nan nan nan nan nan
CAPE
637 279 352 497 609 835 251 132 77 111 505 355 236 209 159 85 75 64 38 29 43 62 42 47 64 48 31 31 28 20 17 19 6 10 11 7 12 7 6 7 3 1 1
598 618 569 507 740 755 407 129 73 103 495 399 210 173 155 99 74 60 31 52 29 49 72 55 72 49 42 27 27 18 18 10 12 10 13 13 9 7 5 4 1 0 0
545 454 346 369 580 396 12 6 1 14 30 234 169 148 137 98 44 30 62 55 46 26 41 77 93 48 39 32 23 21 18 16 11 12 13 10 9 7 3 3 0 0 0
482 443 340 256 274 142 11 3 0 4 44 157 168 165 149 74 40 40 41 62 51 44 26 63 69 56 48 29 17 16 16 16 10 8 10 9 8 7 2 0 0 0 0
419 391 281 67 62 1 2 2 2 0 17 165 141 120 103 52 35 32 29 36 40 44 31 45 39 32 36 42 22 18 16 12 12 12 10 10 6 4 3 1 0 0 0
384 428 302 5 2 2 2 1 0 2 13 142 107 112 94 51 44 42 15 36 32 39 41 60 33 35 25 34 32 18 21 13 13 10 10 7 5 2 1 1 0 0 0
287 262 110 9 5 5 2 2 1 0 1 56 72 41 77 53 28 44 22 40 49 23 35 37 27 38 19 27 35 20 22 17 13 13 9 5 1 2 0 0 0 0 0
274 232 40 40 6 10 7 3 2 3 3 30 45 33 19 10 45 35 39 36 34 44 38 44 35 33 35 23 12 24 21 26 17 13 9 13 10 7 0 0 0 0 0
176 45 40 12 3 4 5 8 6 11 7 5 54 51 22 33 15 27 40 17 41 35 35 46 43 21 18 51 15 7 5 5 70 70 69 47 26 24 11 0 0 0 0
47 47 38 25 4 1 1 8 9 0 3 6 63 80 58 40 23 53 19 21 26 28 37 33 29 23 25 24 16 3 0 0 0 40 182 162 138 85 73 42 20 2 2
60 54 10 35 16 3 2 1 9 15 0 14 35 116 83 65 59 37 30 20 20 35 33 24 20 39 34 15 38 5 0 0 0 0 28 158 297 258 196 160 110 62 34
24 29 67 11 2 5 6 3 0 1 10 32 115 183 47 42 62 61 48 69 89 83 34 23 72 55 60 35 10 0 0 0 0 0 5 28 87 213 322 321 284 262 217
22 25 41 67 11 3 4 1 0 0 0 0 23 35 7 0 0 43 64 101 134 113 95 108 118 83 78 116 85 0 0 0 0 0 0 0 3 13 37 78 191 308 332
24 27 51 56 34 8 3 4 2 2 1 0 0 0 0 20 2 17 10 26 59 86 92 153 129 131 127 129 162 34 46 0 0 0 0 0 0 0 0 0 0 2 13
8 10 40 19 3 9 22 13 15 7 5 2 9 3 0 0 4 12 5 16 29 68 23 45 139 200 227 214 144 128 104 54 0 0 0 0 0 0 0 0 0 0 0
13 22 6 25 6 1 0 4 3 1 2 1 2 1 0 0 0 0 1 44 44 27 27 50 102 136 208 149 121 147 141 61 4 0 0 0 0 0 0 0 0 0 0
10 14 15 27 5 2 1 1 1 1 2 4 1 0 0 0 0 0 12 11 3 22 14 1 47 93 156 208 69 83 76 44 74 0 0 0 0 0 0 0 0 0 0
9 6 5 21 6 12 13 11 6 4 4 4 8 5 0 13 13 59 40 20 25 105 94 56 9 54 233 154 202 170 52 4 0 0 0 0 0 0 0 0 0 0 0
7 5 13 12 5 5 13 10 7 11 9 8 9 10 25 36 6 6 2 0 8 51 93 38 32 145 148 122 165 152 147 148 6 0 0 0 0 0 0 0 0 0 0
1 9 2 9 8 11 7 9 10 8 12 11 13 8 3 0 0 0 0 1 0 0 5 31 20 34 31 48 157 119 162 205 88 32 3 1 0 0 0 0 0 0 0
7 7 10 18 15 10 9 9 6 6 7 10 10 7 9 1 0 0 18 19 1 0 2 41 18 2 0 10 99 122 179 175 212 256 270 278 213 165 18 0 0 0 0
7 7 5 17 23 13 5 0 5 20 13 10 27 17 9 0 0 0 0 0 7 47 32 34 3 6 12 52 142 168 177 182 133 210 259 230 207 138 0 0 0 0 0
19 4 8 12 12 1 0 0 0 16 30 23 18 21 13 9 3 23 3 0 0 0 0 74 129 116 100 72 35 82 102 101 90 45 0 51 0 2 5 6 5 4 3
1 0 0 1 0 0 0 0 0 0 0 0 5 0 0 0 0 0 3 3 0 0 0 0 0 0 0 0 0 0 0 0 0 0 0 0 0 1 2 3 9 8 7
1 2 2 1 1 1 1 0 0 0 0 0 1 1 0 0 0 0 1 0 0 1 0 1 1 0 1 1 0 0 0 0 0 0 0 0 1 1 2 2 3 8 10
2 3 2 3 0 2 2 0 0 1 0 2 1 1 1 1 0 0 0 0 0 0 0 1 2 1 1 2 1 3 1 2 1 0 0 0 1 4 2 7 9 12 12